User: anonymous   Login
Location: Vancouver
(49.2500°N, 123.1330°W)
Time: 04:17:47
(UTC-07:00)
Language:

YAOGAN 6 - Orbit

View from above orbital plane
View from above orbital plane
View from above satellite
View from above satellite

Ground track
Ground track

The orbit data is extracted from the following two-line orbital elements,

1 34839U 09021A   17117.89503023 +.00001110 +00000-0 +45908-4 0  9999
2 34839 097.1496 170.6942 0030141 137.0550 223.3049 15.25573791444891
Epoch (UTC): 27 April 2017 21:28:50
Eccentricity: 0.0030141
inclination: 97.1496°
perigee height: 468 km
apogee height: 510 km
right ascension of ascending node: 170.6942°
argument of perigee: 137.0550°
revolutions per day: 15.25573791
mean anomaly at epoch: 223.3049°
orbit number at epoch: 44489

The dashed part of the orbit path shows where the satellite is in the earth's shadow,  

DLR